When you browse on this site, cookies collect data to enhance your experience and personalize the content and advertising you see.
Visit our Privacy Policy to learn more. By continuing to use the site, you agree to this use of cookies and data.
  • In Sweden
  • List of Countries
  • For 7 days
  • Water Temperature
  • Satellite Maps
  • Weather Map
  • Weather Widgets
  • user-avatar
    Login

    Hourly Weather Pamporovo

    Today, 20 January, Sunday

    Time Temperature Precipitation Wind Pressure Humidity
    00:00 -1°C° 0.1 mm 1 mps 622 mmHg 97%
    01:00 -1°C° 0.1 mm 1 mps 622 mmHg 97%
    02:00 -1°C° 0 mm 1 mps 622 mmHg 97%
    03:00 -1°C° 0.1 mm 1 mps 622 mmHg 97%
    04:00 -1°C° 0.1 mm 1 mps 621 mmHg 97%
    05:00 -2°C° 0.1 mm 1 mps 621 mmHg 98%
    06:00 -1°C° 0.1 mm 1 mps 621 mmHg 98%
    07:00 -1°C° 0.1 mm 1 mps 621 mmHg 98%
    08:00 -1°C° 0.1 mm 1 mps 621 mmHg 98%
    09:00 -1°C° 0.3 mm 1 mps 621 mmHg 98%
    10:00 0°C° 0.3 mm 1 mps 621 mmHg 98%
    11:00 0°C° 0.3 mm 1 mps 621 mmHg 98%
    12:00 0°C° 0.1 mm 1 mps 621 mmHg 97%
    13:00 -1°C° 0.1 mm 2 mps 621 mmHg 97%
    14:00 -1°C° 0.1 mm 2 mps 620 mmHg 96%
    15:00 +1°C° 0 mm 1 mps 620 mmHg 96%
    16:00 0°C° 0 mm 1 mps 620 mmHg 97%
    17:00 0°C° 0 mm 1 mps 620 mmHg 97%
    18:00 -1°C° 0 mm 1 mps 619 mmHg 96%
    19:00 -2°C° 0 mm 1 mps 619 mmHg 95%
    20:00 -2°C° 0 mm 1 mps 619 mmHg 94%
    21:00 -3°C° 0 mm 1 mps 619 mmHg 92%
    22:00 -3°C° 0 mm 1 mps 619 mmHg 91%
    23:00 -3°C° 0 mm 1 mps 619 mmHg 89%

    Tomorrow, 21 January, Monday

    Time Temperature Precipitation Wind Pressure Humidity
    00:00 -4°C° 0 mm 1 mps 619 mmHg 88%
    01:00 -4°C° 0 mm 1 mps 619 mmHg 87%
    02:00 -4°C° 0 mm 1 mps 619 mmHg 86%
    03:00 -4°C° 0 mm 1 mps 619 mmHg 86%
    04:00 -4°C° 0 mm 1 mps 619 mmHg 87%
    05:00 -4°C° 0 mm 1 mps 619 mmHg 87%
    06:00 -4°C° 0 mm 1 mps 619 mmHg 87%
    07:00 -6°C° 0 mm 1 mps 619 mmHg 88%
    08:00 -6°C° 0 mm 1 mps 619 mmHg 88%
    09:00 -3°C° 0 mm 1 mps 620 mmHg 89%
    10:00 -1°C° 0 mm 1 mps 621 mmHg 90%
    11:00 0°C° 0 mm 0 mps 622 mmHg 91%
    12:00 +1°C° 0 mm 1 mps 622 mmHg 91%
    13:00 +1°C° 0 mm 1 mps 622 mmHg 91%
    14:00 +1°C° 0 mm 1 mps 622 mmHg 91%
    15:00 +1°C° 0.1 mm 1 mps 622 mmHg 92%
    16:00 0°C° 0.1 mm 1 mps 622 mmHg 94%
    17:00 -1°C° 0.1 mm 1 mps 622 mmHg 95%
    18:00 -1°C° 0.1 mm 1 mps 622 mmHg 96%
    19:00 -1°C° 0.1 mm 1 mps 622 mmHg 97%
    20:00 -2°C° 0.1 mm 1 mps 622 mmHg 97%
    21:00 -2°C° 0 mm 1 mps 622 mmHg 97%
    22:00 -2°C° 0 mm 1 mps 622 mmHg 97%
    23:00 -2°C° 0 mm 1 mps 622 mmHg 97%

    Day after tomorrow, 22 January, Tuesday

    Time Temperature Precipitation Wind Pressure Humidity
    00:00 -2°C° 0 mm 1 mps 622 mmHg 97%
    01:00 -3°C° 0 mm 1 mps 622 mmHg 98%
    02:00 -3°C° 0 mm 1 mps 622 mmHg 98%
    03:00 -3°C° 0.1 mm 1 mps 622 mmHg 98%
    04:00 -3°C° 0.1 mm 1 mps 621 mmHg 98%
    05:00 -3°C° 0.1 mm 1 mps 621 mmHg 98%
    06:00 -3°C° 0.1 mm 1 mps 621 mmHg 98%
    07:00 -3°C° 0.1 mm 1 mps 621 mmHg 98%
    08:00 -3°C° 0.1 mm 1 mps 621 mmHg 98%
    09:00 -3°C° 0.1 mm 1 mps 621 mmHg 97%
    10:00 -2°C° 0.1 mm 1 mps 621 mmHg 97%
    11:00 -1°C° 0.1 mm 1 mps 622 mmHg 96%
    12:00 -1°C° 0.2 mm 1 mps 621 mmHg 96%
    13:00 -1°C° 0.2 mm 1 mps 621 mmHg 96%
    14:00 -3°C° 0.2 mm 2 mps 620 mmHg 96%
    15:00 -3°C° 0.1 mm 2 mps 620 mmHg 96%
    16:00 -3°C° 0.1 mm 2 mps 619 mmHg 96%
    17:00 -3°C° 0.1 mm 2 mps 619 mmHg 97%
    18:00 -3°C° 0.1 mm 2 mps 618 mmHg 97%
    19:00 -3°C° 0.1 mm 2 mps 618 mmHg 97%
    20:00 -3°C° 0.1 mm 2 mps 618 mmHg 97%
    21:00 -3°C° 0.6 mm 2 mps 617 mmHg 97%
    22:00 -3°C° 0.6 mm 2 mps 617 mmHg 97%
    23:00 -1°C° 0.6 mm 1 mps 616 mmHg 97%

    23 January, Wednesday

    Time Temperature Precipitation Wind Pressure Humidity
    00:00 -1°C° 0.9 mm 1 mps 616 mmHg 97%
    01:00 -3°C° 0.9 mm 2 mps 616 mmHg 98%
    02:00 -3°C° 0.9 mm 2 mps 615 mmHg 99%
    03:00 -2°C° 0.2 mm 2 mps 615 mmHg 98%
    04:00 -2°C° 0.2 mm 2 mps 614 mmHg 98%
    05:00 -2°C° 0.2 mm 3 mps 614 mmHg 98%
    06:00 -2°C° 0 mm 2 mps 614 mmHg 97%
    07:00 -3°C° 0 mm 2 mps 614 mmHg 97%
    08:00 -3°C° 0 mm 2 mps 613 mmHg 96%
    09:00 -2°C° 0 mm 3 mps 614 mmHg 95%
    10:00 -2°C° 0 mm 4 mps 614 mmHg 94%
    11:00 -2°C° 0 mm 4 mps 614 mmHg 93%
    12:00 -1°C° 0 mm 4 mps 614 mmHg 92%
    13:00 -1°C° 0 mm 4 mps 614 mmHg 92%
    14:00 -1°C° 0 mm 4 mps 614 mmHg 91%
    15:00 -2°C° 0 mm 4 mps 614 mmHg 92%
    16:00 -1°C° 0 mm 3 mps 614 mmHg 93%
    17:00 -2°C° 0 mm 3 mps 614 mmHg 94%
    18:00 -2°C° 0.3 mm 3 mps 614 mmHg 95%
    19:00 -2°C° 0.3 mm 3 mps 614 mmHg 96%
    20:00 -2°C° 0.3 mm 2 mps 614 mmHg 98%
    21:00 -1°C° 2.6 mm 3 mps 614 mmHg 98%
    22:00 -1°C° 2.6 mm 3 mps 614 mmHg 98%
    23:00 -1°C° 2.6 mm 3 mps 614 mmHg 98%

    24 January, Thursday

    Time Temperature Precipitation Wind Pressure Humidity
    00:00 -2°C° 2.4 mm 4 mps 614 mmHg 98%
    01:00 -2°C° 2.4 mm 4 mps 614 mmHg 98%
    02:00 -2°C° 2.4 mm 4 mps 613 mmHg 98%
    03:00 -2°C° 2.1 mm 4 mps 613 mmHg 98%
    04:00 -1°C° 2.1 mm 3 mps 613 mmHg 98%
    05:00 -1°C° 2.1 mm 3 mps 612 mmHg 98%
    06:00 -1°C° 2.2 mm 2 mps 612 mmHg 98%
    07:00 -1°C° 2.2 mm 2 mps 612 mmHg 98%
    08:00 -1°C° 2.2 mm 2 mps 612 mmHg 99%
    09:00 -1°C° 3.7 mm 2 mps 612 mmHg 99%
    10:00 -1°C° 3.7 mm 2 mps 611 mmHg 99%
    11:00 -1°C° 3.7 mm 2 mps 611 mmHg 99%
    12:00 -1°C° 4.6 mm 2 mps 610 mmHg 99%
    13:00 -2°C° 4.6 mm 2 mps 609 mmHg 99%
    14:00 -2°C° 4.6 mm 2 mps 608 mmHg 98%
    15:00 -2°C° 4.3 mm 2 mps 608 mmHg 98%
    16:00 -2°C° 4.3 mm 2 mps 608 mmHg 98%
    17:00 -2°C° 4.3 mm 2 mps 607 mmHg 98%
    18:00 -2°C° 1.3 mm 2 mps 607 mmHg 98%
    19:00 -2°C° 1.3 mm 2 mps 608 mmHg 99%
    20:00 -2°C° 1.3 mm 2 mps 608 mmHg 99%
    21:00 -2°C° 0.4 mm 2 mps 608 mmHg 99%
    22:00 -2°C° 0.4 mm 2 mps 608 mmHg 99%
    23:00 -2°C° 0.4 mm 2 mps 608 mmHg 99%

    25 January, Friday

    Time Temperature Precipitation Wind Pressure Humidity
    00:00 -3°C° 0 mm 2 mps 608 mmHg 98%
    01:00 -3°C° 0 mm 2 mps 608 mmHg 98%
    02:00 -1°C° 0 mm 1 mps 608 mmHg 97%
    03:00 -1°C° 0.2 mm 1 mps 607 mmHg 97%
    04:00 -2°C° 0.2 mm 1 mps 607 mmHg 97%
    05:00 -2°C° 0.2 mm 1 mps 607 mmHg 96%
    06:00 -2°C° 1.2 mm 1 mps 607 mmHg 96%
    07:00 -1°C° 1.2 mm 1 mps 607 mmHg 96%
    08:00 -1°C° 1.2 mm 1 mps 608 mmHg 97%
    09:00 -1°C° 1.6 mm 1 mps 608 mmHg 96%
    10:00 -1°C° 1.6 mm 1 mps 608 mmHg 96%
    11:00 0°C° 1.6 mm 1 mps 609 mmHg 95%
    12:00 0°C° 0.6 mm 1 mps 609 mmHg 94%
    13:00 0°C° 0.6 mm 1 mps 609 mmHg 94%
    14:00 0°C° 0.6 mm 1 mps 609 mmHg 93%
    15:00 0°C° 0 mm 1 mps 609 mmHg 93%
    16:00 -1°C° 0 mm 0 mps 610 mmHg 93%
    17:00 -2°C° 0 mm 0 mps 610 mmHg 93%
    18:00 -1°C° 0 mm 1 mps 610 mmHg 93%
    19:00 -2°C° 0 mm 1 mps 610 mmHg 93%
    20:00 -3°C° 0 mm 1 mps 610 mmHg 93%
    21:00 -3°C° 0.1 mm 1 mps 611 mmHg 93%
    22:00 -3°C° 0.1 mm 1 mps 611 mmHg 93%
    23:00 -3°C° 0.1 mm 1 mps 612 mmHg 93%
    Show more